This demonstration page uses our WeatherBlox Daily Observations layout. Learn more.

Left ArrowRight Arrow

Hourly Observations for July 9, 2018

Temp ( °F °C ) Dew Point ( °F °C ) Humidity (%) Winds ( mph kmh ) Pressure ( in mb ) Visibility ( mi km ) Precip ( " mm )
12:15 am 00:15 Clear 73 23 61 16 65 65 S 8 13 30.03 1017 10 16 N/A
12:35 am 00:35 Clear 74 23.2 61 16 64 64 S 8 13 30.06 1018 7 11 N/A
12:55 am 00:55 Clear 73 22.5 61 16 67 67 S 7 11 30.06 1018 10 16 N/A
1:15 am 01:15 Clear 73 22.9 60 15.6 64 64 S 10 17 30.06 1018 10 16 N/A
1:35 am 01:35 Clear 73 22.7 60 15.5 64 64 S 8 13 30.06 1018 10 16 N/A
1:55 am 01:55 Clear 73 22.8 60 15.4 63 63 S 8 13 30.06 1018 10 16 N/A
2:15 am 02:15 Clear 73 22.6 60 15.3 64 64 S 9 15 30.06 1018 10 16 N/A
2:35 am 02:35 Clear 72 22.4 60 15.3 64 64 S 9 15 30.06 1018 10 16 N/A
2:55 am 02:55 Clear 72 22 60 15.5 67 67 S 9 15 30.06 1018 10 16 N/A
3:15 am 03:15 Clear 71 21.8 60 15.6 68 68 S 7 11 30.06 1018 10 16 N/A
3:35 am 03:35 Clear 70 21.3 60 15.5 70 70 S 5 7 30.09 1019 10 16 N/A
3:55 am 03:55 Clear 70 21 60 15.5 71 71 S 5 7 30.09 1019 10 16 N/A
4:15 am 04:15 Clear 70 20.9 59 15.2 70 70 SSW 7 11 30.09 1019 10 16 N/A
4:35 am 04:35 Clear 71 21.4 59 15 67 67 SSW 6 9 30.06 1018 10 16 N/A
4:55 am 04:55 Clear 70 21.3 59 14.8 67 67 N N/A 30.09 1019 10 16 N/A
5:15 am 05:15 Clear 69 20.7 58 14.7 69 69 N N/A 30.09 1019 10 16 N/A
5:35 am 05:35 Clear 70 21.1 58 14.6 67 67 N N/A 30.09 1019 10 16 N/A
5:55 am 05:55 Clear 69 20.5 58 14.5 69 69 N N/A 30.09 1019 10 16 N/A
6:15 am 06:15 Clear 68 20.2 58 14.5 70 70 N N/A 30.12 1020 10 16 N/A
6:35 am 06:35 Sunny 70 21 58 14.2 65 65 N N/A 30.12 1020 10 16 N/A
6:55 am 06:55 Sunny 69 20.7 58 14.5 68 68 W 5 7 30.12 1020 10 16 N/A
7:15 am 07:15 Sunny 68 19.9 61 16 78 78 N N/A 30.12 1020 10 16 N/A
7:35 am 07:35 Sunny 68 19.8 63 17 84 84 N N/A 30.12 1020 10 16 N/A
7:55 am 07:55 Sunny 71 21.5 63 17.1 76 76 N N/A 30.12 1020 10 16 N/A
8:15 am 08:15 Sunny 73 22.7 62 16.4 68 68 N N/A 30.12 1020 10 16 N/A
8:35 am 08:35 Sunny 74 23.5 62 16.8 66 66 N N/A 30.12 1020 10 16 N/A
8:55 am 08:55 Sunny 75 24 62 16.7 64 64 SW 3 6 30.12 1020 10 16 N/A
9:15 am 09:15 Sunny 76 24.6 63 17.3 64 64 WSW 6 9 30.12 1020 10 16 N/A
9:35 am 09:35 Sunny 78 25.3 63 17.2 61 61 SSW 6 9 30.12 1020 10 16 N/A
9:55 am 09:55 Sunny 79 26 64 17.5 60 60 SW 5 7 30.09 1019 10 16 N/A
10:15 am 10:15 Sunny 81 27 64 18 58 58 WSW 5 7 30.09 1019 N/A N/A
10:35 am 10:35 Sunny 81 27.2 65 18.5 59 59 SSW 7 11 30.09 1019 10 16 0.01 0.25
10:55 am 10:55 Sunny 82 27.6 66 18.8 59 59 SW 6 9 30.09 1019 10 16 0.01 0.25
11:15 am 11:15 Sunny 83 28.4 67 19.7 59 59 S 6 9 30.09 1019 10 16 N/A
11:35 am 11:35 Sunny 84 28.7 67 19.5 58 58 S 8 13 30.09 1019 10 16 N/A
11:55 am 11:55 Sunny 84 29.1 67 19.5 56 56 SSW 7 11 30.06 1018 10 16 N/A
12:15 pm 12:15 Sunny 85 29.5 67 19.5 55 55 S 7 11 30.06 1018 10 16 N/A
12:35 pm 12:35 Sunny 85 29.6 68 20.1 57 57 S 7 11 30.06 1018 10 16 N/A
12:55 pm 12:55 Sunny 86 30.1 69 20.4 56 56 SSW 5 7 30.06 1018 10 16 N/A
1:15 pm 13:15 Sunny 87 30.3 70 21 58 58 S 8 13 30.06 1018 10 16 N/A
1:35 pm 13:35 Sunny 87 30.6 69 20.7 56 56 S 12 19 30.06 1018 10 16 N/A
1:55 pm 13:55 Sunny 87 30.8 67 19.5 51 51 S 8 13 30.06 1018 10 16 N/A
2:15 pm 14:15 Sunny 88 31 64 17.9 46 46 S 9 15 30.03 1017 10 16 N/A
2:35 pm 14:35 Sunny 88 31.2 64 17.6 44 44 S 10 17 30.03 1017 10 16 N/A
2:55 pm 14:55 Sunny 88 31.2 68 19.8 51 51 S 10 17 30.03 1017 10 16 N/A
3:15 pm 15:15 Sunny 88 31.1 68 20.1 52 52 SSE 10 17 30.03 1017 10 16 N/A
3:35 pm 15:35 Sunny 89 31.4 67 19.4 49 49 SE 12 19 30.03 1017 10 16 N/A
3:55 pm 15:55 Sunny 89 31.5 67 19.5 49 49 SSE 9 15 30.03 1017 10 16 N/A
4:15 pm 16:15 Sunny 89 31.6 66 19 47 47 SE 8 13 30.03 1017 10 16 N/A
4:35 pm 16:35 Sunny 89 31.5 66 18.7 47 47 SE 12 19 30.03 1017 10 16 N/A
4:55 pm 16:55 Sunny 89 31.5 66 18.7 47 47 SSE 9 15 30.03 1017 10 16 N/A
5:15 pm 17:15 Sunny 89 31.5 65 18.4 46 46 SSE 8 13 30.03 1017 10 16 N/A
5:35 pm 17:35 Sunny 88 31.2 65 18.6 47 47 SSE 9 15 30.03 1017 10 16 N/A
5:55 pm 17:55 Sunny 88 31.1 67 19.2 49 49 SSE 9 15 30.03 1017 10 16 N/A
6:15 pm 18:15 Sunny 88 31 67 19.4 50 50 SSE 8 13 30.00 1016 10 16 N/A
6:35 pm 18:35 Sunny 88 30.9 68 20.2 53 53 SSE 8 13 30.00 1016 10 16 N/A
6:55 pm 18:55 Sunny 87 30.5 67 19.7 52 52 SSE 8 13 30.00 1016 10 16 N/A
7:15 pm 19:15 Sunny 87 30.3 67 19.2 51 51 SE 8 13 30.00 1016 10 16 N/A
7:35 pm 19:35 Sunny 85 29.6 67 19.4 54 54 SE 7 11 30.00 1016 10 16 N/A
7:55 pm 19:55 Sunny 84 29 68 20 58 58 SE 7 11 30.00 1016 10 16 N/A
8:15 pm 20:15 Sunny 83 28.1 68 20.2 62 62 SSE 7 11 30.03 1017 10 16 N/A
8:35 pm 20:35 Sunny 81 27.1 70 20.9 69 69 SE 6 9 30.03 1017 10 16 N/A
8:55 pm 20:55 Sunny 80 26.9 68 20 66 66 SE 5 7 30.03 1017 10 16 N/A
9:15 pm 21:15 Clear 78 25.7 68 20.2 72 72 SE 5 7 30.03 1017 10 16 N/A
9:35 pm 21:35 Clear 77 25.1 69 20.4 75 75 SE 5 7 30.03 1017 10 16 N/A
9:55 pm 21:55 Clear 78 25.3 69 20.3 74 74 SE 6 9 30.03 1017 10 16 N/A
10:15 pm 22:15 Clear 77 25.2 69 20.5 75 75 SE 7 11 30.06 1018 10 16 N/A
10:35 pm 22:35 Clear 77 24.8 68 20.2 76 76 SE 7 11 30.09 1019 10 16 N/A
10:55 pm 22:55 Clear 74 23.5 68 19.8 80 80 SE 5 7 30.09 1019 10 16 N/A
11:15 pm 23:15 Clear 74 23.4 67 19.6 79 79 N N/A 30.09 1019 10 16 N/A
11:35 pm 23:35 Clear 73 22.5 67 19.6 84 84 SE 3 6 30.09 1019 10 16 N/A
11:55 pm 23:55 Clear 73 22.6 67 19.3 82 82 SE 5 7 30.09 1019 10 16 N/A

Powered by AerisWeather